Year,Month,Day,Hour,Minute,Value (Times are PST for temperature in C)
2017,03,30,00,00,4.90
2017,03,30,00,01,4.90
2017,03,30,00,02,4.90
2017,03,30,00,03,4.90
2017,03,30,00,04,4.90
2017,03,30,00,05,4.90
2017,03,30,00,06,4.90
2017,03,30,00,07,4.80
2017,03,30,00,08,4.80
2017,03,30,00,09,4.80
2017,03,30,00,10,4.80
2017,03,30,00,11,4.80
2017,03,30,00,12,4.80
2017,03,30,00,13,4.80
2017,03,30,00,14,4.80
2017,03,30,00,15,4.80
2017,03,30,00,16,4.70
2017,03,30,00,17,4.70
2017,03,30,00,18,4.70
2017,03,30,00,19,4.70
2017,03,30,00,20,4.70
2017,03,30,00,21,4.70
2017,03,30,00,22,4.70
2017,03,30,00,23,4.70
2017,03,30,00,24,4.60
2017,03,30,00,25,4.60
2017,03,30,00,26,4.60
2017,03,30,00,27,4.60
2017,03,30,00,28,4.60
2017,03,30,00,29,4.60
2017,03,30,00,30,4.60
2017,03,30,00,31,4.60
2017,03,30,00,32,4.60
2017,03,30,00,33,4.60
2017,03,30,00,34,4.60
2017,03,30,00,35,4.60
2017,03,30,00,36,4.60
2017,03,30,00,37,4.60
2017,03,30,00,38,4.50
2017,03,30,00,39,4.60
2017,03,30,00,40,4.60
2017,03,30,00,41,4.60
2017,03,30,00,42,4.60
2017,03,30,00,43,4.60
2017,03,30,00,44,4.60
2017,03,30,00,45,4.60
2017,03,30,00,46,4.60
2017,03,30,00,47,4.60
2017,03,30,00,48,4.60
2017,03,30,00,49,4.60
2017,03,30,00,50,4.60
2017,03,30,00,51,4.50
2017,03,30,00,52,4.50
2017,03,30,00,53,4.50
2017,03,30,00,54,4.50
2017,03,30,00,55,4.50
2017,03,30,00,56,4.40
2017,03,30,00,57,4.40
2017,03,30,00,58,4.40
2017,03,30,00,59,4.40
2017,03,30,01,00,4.40
2017,03,30,01,01,4.40
2017,03,30,01,02,4.40
2017,03,30,01,03,4.40
2017,03,30,01,04,4.40
2017,03,30,01,05,4.40
2017,03,30,01,06,4.40
2017,03,30,01,07,4.40
2017,03,30,01,08,4.40
2017,03,30,01,09,4.40
2017,03,30,01,10,4.40
2017,03,30,01,11,4.30
2017,03,30,01,12,4.30
2017,03,30,01,13,4.30
2017,03,30,01,14,4.30
2017,03,30,01,15,4.30
2017,03,30,01,16,4.20
2017,03,30,01,17,4.20
2017,03,30,01,18,4.20
2017,03,30,01,19,4.20
2017,03,30,01,20,4.20
2017,03,30,01,21,4.20
2017,03,30,01,22,4.10
2017,03,30,01,23,4.10
2017,03,30,01,24,4.10
2017,03,30,01,25,4.10
2017,03,30,01,26,4.10
2017,03,30,01,27,4.10
2017,03,30,01,28,4.00
2017,03,30,01,29,4.00
2017,03,30,01,30,4.00
2017,03,30,01,31,4.00
2017,03,30,01,32,3.90
2017,03,30,01,33,3.90
2017,03,30,01,34,3.90
2017,03,30,01,35,3.90
2017,03,30,01,36,3.90
2017,03,30,01,37,3.90
2017,03,30,01,38,3.90
2017,03,30,01,39,3.90
2017,03,30,01,40,3.90
2017,03,30,01,41,3.90
2017,03,30,01,42,3.90
2017,03,30,01,43,3.90
2017,03,30,01,44,3.90
2017,03,30,01,45,3.90
2017,03,30,01,46,3.90
2017,03,30,01,47,3.90
2017,03,30,01,48,3.80
2017,03,30,01,49,3.80
2017,03,30,01,50,3.80
2017,03,30,01,51,3.80
2017,03,30,01,52,3.80
2017,03,30,01,53,3.80
2017,03,30,01,54,3.80
2017,03,30,01,55,3.80
2017,03,30,01,56,3.80
2017,03,30,01,57,3.70
2017,03,30,01,58,3.70
2017,03,30,01,59,3.70
2017,03,30,02,00,3.70
2017,03,30,02,01,3.70
2017,03,30,02,02,3.70
2017,03,30,02,03,3.70
2017,03,30,02,04,3.70
2017,03,30,02,05,3.60
2017,03,30,02,06,3.60
2017,03,30,02,07,3.60
2017,03,30,02,08,3.60
2017,03,30,02,09,3.60
2017,03,30,02,10,3.60
2017,03,30,02,11,3.60
2017,03,30,02,12,3.60
2017,03,30,02,13,3.50
2017,03,30,02,14,3.50
2017,03,30,02,15,3.50
2017,03,30,02,16,3.50
2017,03,30,02,17,3.50
2017,03,30,02,18,3.50
2017,03,30,02,19,3.50
2017,03,30,02,20,3.50
2017,03,30,02,21,3.50
2017,03,30,02,22,3.50
2017,03,30,02,23,3.60
2017,03,30,02,24,3.60
2017,03,30,02,25,3.60
2017,03,30,02,26,3.60
2017,03,30,02,27,3.60
2017,03,30,02,28,3.60
2017,03,30,02,29,3.60
2017,03,30,02,30,3.60
2017,03,30,02,31,3.60
2017,03,30,02,32,3.60
2017,03,30,02,33,3.60
2017,03,30,02,34,3.60
2017,03,30,02,35,3.60
2017,03,30,02,36,3.60
2017,03,30,02,37,3.60
2017,03,30,02,38,3.50
2017,03,30,02,39,3.50
2017,03,30,02,40,3.50
2017,03,30,02,41,3.60
2017,03,30,02,42,3.60
2017,03,30,02,43,3.60
2017,03,30,02,44,3.60
2017,03,30,02,45,3.50
2017,03,30,02,46,3.60
2017,03,30,02,47,3.50
2017,03,30,02,48,3.50
2017,03,30,02,49,3.50
2017,03,30,02,50,3.50
2017,03,30,02,51,3.50
2017,03,30,02,52,3.50
2017,03,30,02,53,3.50
2017,03,30,02,54,3.50
2017,03,30,02,55,3.50
2017,03,30,02,56,3.50
2017,03,30,02,57,3.50
2017,03,30,02,58,3.60
2017,03,30,02,59,3.60
2017,03,30,03,00,3.60
2017,03,30,03,01,3.60
2017,03,30,03,02,3.60
2017,03,30,03,03,3.60
2017,03,30,03,04,3.60
2017,03,30,03,05,3.60
2017,03,30,03,06,3.60
2017,03,30,03,07,3.60
2017,03,30,03,08,3.50
2017,03,30,03,09,3.50
2017,03,30,03,10,3.50
2017,03,30,03,11,3.50
2017,03,30,03,12,3.40
2017,03,30,03,13,3.40
2017,03,30,03,14,3.40
2017,03,30,03,15,3.40
2017,03,30,03,16,3.40
2017,03,30,03,17,3.40
2017,03,30,03,18,3.40
2017,03,30,03,19,3.40
2017,03,30,03,20,3.40
2017,03,30,03,21,3.30
2017,03,30,03,22,3.30
2017,03,30,03,23,3.30
2017,03,30,03,24,3.30
2017,03,30,03,25,3.30
2017,03,30,03,26,3.30
2017,03,30,03,27,3.30
2017,03,30,03,28,3.30
2017,03,30,03,29,3.30
2017,03,30,03,30,3.30
2017,03,30,03,31,3.30
2017,03,30,03,32,3.30
2017,03,30,03,33,3.30
2017,03,30,03,34,3.30
2017,03,30,03,35,3.30
2017,03,30,03,36,3.30
2017,03,30,03,37,3.20
2017,03,30,03,38,3.20
2017,03,30,03,39,3.20
2017,03,30,03,40,3.20
2017,03,30,03,41,3.20
2017,03,30,03,42,3.20
2017,03,30,03,43,3.20
2017,03,30,03,44,3.20
2017,03,30,03,45,3.20
2017,03,30,03,46,3.20
2017,03,30,03,47,3.20
2017,03,30,03,48,3.20
2017,03,30,03,49,3.20
2017,03,30,03,50,3.20
2017,03,30,03,51,3.20
2017,03,30,03,52,3.20
2017,03,30,03,53,3.20
2017,03,30,03,54,3.10
2017,03,30,03,55,3.10
2017,03,30,03,56,3.10
2017,03,30,03,57,3.10
2017,03,30,03,58,3.10
2017,03,30,03,59,3.10
2017,03,30,04,00,3.10
2017,03,30,04,01,3.10
2017,03,30,04,02,3.10
2017,03,30,04,03,3.10
2017,03,30,04,04,3.10
2017,03,30,04,05,3.00
2017,03,30,04,06,3.00
2017,03,30,04,07,3.00
2017,03,30,04,08,3.00
2017,03,30,04,09,3.00
2017,03,30,04,10,3.00
2017,03,30,04,11,3.00
2017,03,30,04,12,2.90
2017,03,30,04,13,3.00
2017,03,30,04,14,3.00
2017,03,30,04,15,3.00
2017,03,30,04,16,3.00
2017,03,30,04,17,3.00
2017,03,30,04,18,3.00
2017,03,30,04,19,3.00
2017,03,30,04,20,3.00
2017,03,30,04,21,3.00
2017,03,30,04,22,3.00
2017,03,30,04,23,3.00
2017,03,30,04,24,3.00
2017,03,30,04,25,3.00
2017,03,30,04,26,3.00
2017,03,30,04,27,2.90
2017,03,30,04,28,2.90
2017,03,30,04,29,2.90
2017,03,30,04,30,2.90
2017,03,30,04,31,2.90
2017,03,30,04,32,2.90
2017,03,30,04,33,2.90
2017,03,30,04,34,2.90
2017,03,30,04,35,2.80
2017,03,30,04,36,2.80
2017,03,30,04,37,2.80
2017,03,30,04,38,2.80
2017,03,30,04,39,2.80
2017,03,30,04,40,2.80
2017,03,30,04,41,2.80
2017,03,30,04,42,2.70
2017,03,30,04,43,2.70
2017,03,30,04,44,2.70
2017,03,30,04,45,2.70
2017,03,30,04,46,2.70
2017,03,30,04,47,2.70
2017,03,30,04,48,2.70
2017,03,30,04,49,2.70
2017,03,30,04,50,2.60
2017,03,30,04,51,2.60
2017,03,30,04,52,2.60
2017,03,30,04,53,2.60
2017,03,30,04,54,2.60
2017,03,30,04,55,2.60
2017,03,30,04,56,2.60
2017,03,30,04,57,2.60
2017,03,30,04,58,2.50
2017,03,30,04,59,2.50
2017,03,30,05,00,2.50
2017,03,30,05,01,2.50
2017,03,30,05,02,2.50
2017,03,30,05,03,2.40
2017,03,30,05,04,2.40
2017,03,30,05,05,2.40
2017,03,30,05,06,2.40
2017,03,30,05,07,2.50
2017,03,30,05,08,2.50
2017,03,30,05,09,2.50
2017,03,30,05,10,2.50
2017,03,30,05,11,2.50
2017,03,30,05,12,2.50
2017,03,30,05,13,2.50
2017,03,30,05,14,2.50
2017,03,30,05,15,2.50
2017,03,30,05,16,2.50
2017,03,30,05,17,2.50
2017,03,30,05,18,2.50
2017,03,30,05,19,2.50
2017,03,30,05,20,2.50
2017,03,30,05,21,2.50
2017,03,30,05,22,2.50
2017,03,30,05,23,2.50
2017,03,30,05,24,2.50
2017,03,30,05,25,2.50
2017,03,30,05,26,2.50
2017,03,30,05,27,2.60
2017,03,30,05,28,2.60
2017,03,30,05,29,2.60
2017,03,30,05,30,2.60
2017,03,30,05,31,2.60
2017,03,30,05,32,2.60
2017,03,30,05,33,2.60
2017,03,30,05,34,2.60
2017,03,30,05,35,2.60
2017,03,30,05,36,2.60
2017,03,30,05,37,2.60
2017,03,30,05,38,2.60
2017,03,30,05,39,2.60
2017,03,30,05,40,2.60
2017,03,30,05,41,2.70
2017,03,30,05,42,2.70
2017,03,30,05,43,2.70
2017,03,30,05,44,2.70
2017,03,30,05,45,2.70
2017,03,30,05,46,2.70
2017,03,30,05,47,2.80
2017,03,30,05,48,2.80
2017,03,30,05,49,2.80
2017,03,30,05,50,2.80
2017,03,30,05,51,2.80
2017,03,30,05,52,2.80
2017,03,30,05,53,2.80
2017,03,30,05,54,2.90
2017,03,30,05,55,2.90
2017,03,30,05,56,2.90
2017,03,30,05,57,2.90
2017,03,30,05,58,2.90
2017,03,30,05,59,2.90
2017,03,30,06,00,2.90
2017,03,30,06,01,2.90
2017,03,30,06,02,2.90
2017,03,30,06,03,2.90
2017,03,30,06,04,2.80
2017,03,30,06,05,2.80
2017,03,30,06,06,2.80
2017,03,30,06,07,2.80
2017,03,30,06,08,2.80
2017,03,30,06,09,2.80
2017,03,30,06,10,2.80
2017,03,30,06,11,2.80
2017,03,30,06,12,2.80
2017,03,30,06,13,2.70
2017,03,30,06,14,2.70
2017,03,30,06,15,2.70
2017,03,30,06,16,2.70
2017,03,30,06,17,2.70
2017,03,30,06,18,2.70
2017,03,30,06,19,2.60
2017,03,30,06,20,2.60
2017,03,30,06,21,2.60
2017,03,30,06,22,2.60
2017,03,30,06,23,2.60
2017,03,30,06,24,2.60
2017,03,30,06,25,2.60
2017,03,30,06,26,2.60
2017,03,30,06,27,2.60
2017,03,30,06,28,2.60
2017,03,30,06,29,2.60
2017,03,30,06,30,2.60
2017,03,30,06,31,2.60
2017,03,30,06,32,2.60
2017,03,30,06,33,2.60
2017,03,30,06,34,2.60
2017,03,30,06,35,2.60
2017,03,30,06,36,2.60
2017,03,30,06,37,2.60
2017,03,30,06,38,2.50
2017,03,30,06,39,2.50
2017,03,30,06,40,2.50
2017,03,30,06,41,2.50
2017,03,30,06,42,2.40
2017,03,30,06,43,2.40
2017,03,30,06,44,2.40
2017,03,30,06,45,2.40
2017,03,30,06,46,2.40
2017,03,30,06,47,2.40
2017,03,30,06,48,2.30
2017,03,30,06,49,2.30
2017,03,30,06,50,2.30
2017,03,30,06,51,2.30
2017,03,30,06,52,2.30
2017,03,30,06,53,2.30
2017,03,30,06,54,2.30
2017,03,30,06,55,2.30
2017,03,30,06,56,2.30
2017,03,30,06,57,2.30
2017,03,30,06,58,2.30
2017,03,30,06,59,2.30
2017,03,30,07,00,2.30
2017,03,30,07,01,2.30
2017,03,30,07,02,2.30
2017,03,30,07,03,2.30
2017,03,30,07,04,2.20
2017,03,30,07,05,2.20
2017,03,30,07,06,2.20
2017,03,30,07,07,2.20
2017,03,30,07,08,2.10
2017,03,30,07,09,2.10
2017,03,30,07,10,2.10
2017,03,30,07,11,2.10
2017,03,30,07,12,2.10
2017,03,30,07,13,2.10
2017,03,30,07,14,2.10
2017,03,30,07,15,2.00
2017,03,30,07,16,2.00
2017,03,30,07,17,2.00
2017,03,30,07,18,2.00
2017,03,30,07,19,2.00
2017,03,30,07,20,2.00
2017,03,30,07,21,1.90
2017,03,30,07,22,1.90
2017,03,30,07,23,1.90
2017,03,30,07,24,1.90
2017,03,30,07,25,1.90
2017,03,30,07,26,1.90
2017,03,30,07,27,1.90
2017,03,30,07,28,1.90
2017,03,30,07,29,1.90
2017,03,30,07,30,1.90
2017,03,30,07,31,1.90
2017,03,30,07,32,1.90
2017,03,30,07,33,1.90
2017,03,30,07,34,1.90
2017,03,30,07,35,1.90
2017,03,30,07,36,1.90
2017,03,30,07,37,1.90
2017,03,30,07,38,1.90
2017,03,30,07,39,1.90
2017,03,30,07,40,1.90
2017,03,30,07,41,1.90
2017,03,30,07,42,1.90
2017,03,30,07,43,1.90
2017,03,30,07,44,1.90
2017,03,30,07,45,2.00
2017,03,30,07,46,1.90
2017,03,30,07,47,1.90
2017,03,30,07,48,1.90
2017,03,30,07,49,1.90
2017,03,30,07,50,1.90
2017,03,30,07,51,1.90
2017,03,30,07,52,1.90
2017,03,30,07,53,2.00
2017,03,30,07,54,2.00
2017,03,30,07,55,2.00
2017,03,30,07,56,1.90
2017,03,30,07,57,1.90
2017,03,30,07,58,2.00
2017,03,30,07,59,1.90
2017,03,30,08,00,1.90
2017,03,30,08,01,1.90
2017,03,30,08,02,1.90
2017,03,30,08,03,1.90
2017,03,30,08,04,1.90
2017,03,30,08,05,1.90
2017,03,30,08,06,1.90
2017,03,30,08,07,2.00
2017,03,30,08,08,2.00
2017,03,30,08,09,2.00
2017,03,30,08,10,2.00
2017,03,30,08,11,2.10
2017,03,30,08,12,2.10
2017,03,30,08,13,2.10
2017,03,30,08,14,2.10
2017,03,30,08,15,2.10
2017,03,30,08,16,2.10
2017,03,30,08,17,2.10
2017,03,30,08,18,2.10
2017,03,30,08,19,2.10
2017,03,30,08,20,2.10
2017,03,30,08,21,2.10
2017,03,30,08,22,2.20
2017,03,30,08,23,2.20
2017,03,30,08,24,2.20
2017,03,30,08,25,2.20
2017,03,30,08,26,2.20
2017,03,30,08,27,2.20
2017,03,30,08,28,2.20
2017,03,30,08,29,2.20
2017,03,30,08,30,2.20
2017,03,30,08,31,2.30
2017,03,30,08,32,2.30
2017,03,30,08,33,2.30
2017,03,30,08,34,2.30
2017,03,30,08,35,2.30
2017,03,30,08,36,2.30
2017,03,30,08,37,2.30
2017,03,30,08,38,2.40
2017,03,30,08,39,2.40
2017,03,30,08,40,2.40
2017,03,30,08,41,2.40
2017,03,30,08,42,2.40
2017,03,30,08,43,2.50
2017,03,30,08,44,2.50
2017,03,30,08,45,2.50
2017,03,30,08,46,2.60
2017,03,30,08,47,2.60
2017,03,30,08,48,2.60
2017,03,30,08,49,2.60
2017,03,30,08,50,2.60
2017,03,30,08,51,2.70
2017,03,30,08,52,2.70
2017,03,30,08,53,2.70
2017,03,30,08,54,2.70
2017,03,30,08,55,2.70
2017,03,30,08,56,2.80
2017,03,30,08,57,2.80
2017,03,30,08,58,2.80
2017,03,30,08,59,2.80
2017,03,30,09,00,2.80
2017,03,30,09,01,2.90
2017,03,30,09,02,2.90
2017,03,30,09,03,2.90
2017,03,30,09,04,2.90
2017,03,30,09,05,2.90
2017,03,30,09,06,3.00
2017,03,30,09,07,3.00
2017,03,30,09,08,3.00
2017,03,30,09,09,3.10
2017,03,30,09,10,3.10
2017,03,30,09,11,3.10
2017,03,30,09,12,3.10
2017,03,30,09,13,3.10
2017,03,30,09,14,3.20
2017,03,30,09,15,3.20
2017,03,30,09,16,3.20
2017,03,30,09,17,3.20
2017,03,30,09,18,3.20
2017,03,30,09,19,3.30
2017,03,30,09,20,3.30
2017,03,30,09,21,3.30
2017,03,30,09,22,3.30
2017,03,30,09,23,3.30
2017,03,30,09,24,3.40
2017,03,30,09,25,3.40
2017,03,30,09,26,3.50
2017,03,30,09,27,3.50
2017,03,30,09,28,3.60
2017,03,30,09,29,3.60
2017,03,30,09,30,3.70
2017,03,30,09,31,3.70
2017,03,30,09,32,3.70
2017,03,30,09,33,3.70
2017,03,30,09,34,3.80
2017,03,30,09,35,3.80
2017,03,30,09,36,3.80
2017,03,30,09,37,3.80
2017,03,30,09,38,3.80
2017,03,30,09,39,3.90
2017,03,30,09,40,3.90
2017,03,30,09,41,3.90
2017,03,30,09,42,3.90
2017,03,30,09,43,4.00
2017,03,30,09,44,4.00
2017,03,30,09,45,4.00
2017,03,30,09,46,4.00
2017,03,30,09,47,4.10
2017,03,30,09,48,4.10
2017,03,30,09,49,4.20
2017,03,30,09,50,4.20
2017,03,30,09,51,4.20
2017,03,30,09,52,4.20
2017,03,30,09,53,4.30
2017,03,30,09,54,4.30
2017,03,30,09,55,4.40
2017,03,30,09,56,4.40
2017,03,30,09,57,4.40
2017,03,30,09,58,4.50
2017,03,30,09,59,4.50
2017,03,30,10,00,4.60
2017,03,30,10,01,4.60
2017,03,30,10,02,4.70
2017,03,30,10,03,4.70
2017,03,30,10,04,4.70
2017,03,30,10,05,4.80
2017,03,30,10,06,4.80
2017,03,30,10,07,4.80
2017,03,30,10,08,4.80
2017,03,30,10,09,4.90
2017,03,30,10,10,4.90
2017,03,30,10,11,4.90
2017,03,30,10,12,5.00
2017,03,30,10,13,5.00
2017,03,30,10,14,5.10
2017,03,30,10,15,5.10
2017,03,30,10,16,5.10
2017,03,30,10,17,5.10
2017,03,30,10,18,5.20
2017,03,30,10,19,5.20
2017,03,30,10,20,5.30
2017,03,30,10,21,5.30
2017,03,30,10,22,5.40
2017,03,30,10,23,5.40
2017,03,30,10,24,5.50
2017,03,30,10,25,5.60
2017,03,30,10,26,5.60
2017,03,30,10,27,5.70
2017,03,30,10,28,5.80
2017,03,30,10,29,5.80
2017,03,30,10,30,5.90
2017,03,30,10,31,6.00
2017,03,30,10,32,6.10
2017,03,30,10,33,6.20
2017,03,30,10,34,6.30
2017,03,30,10,35,6.30
2017,03,30,10,36,6.40
2017,03,30,10,37,6.50
2017,03,30,10,38,6.60
2017,03,30,10,39,6.70
2017,03,30,10,40,6.80
2017,03,30,10,41,6.90
2017,03,30,10,42,7.00
2017,03,30,10,43,7.10
2017,03,30,10,44,7.20
2017,03,30,10,45,7.20
2017,03,30,10,46,7.30
2017,03,30,10,47,7.40
2017,03,30,10,48,7.50
2017,03,30,10,49,7.60
2017,03,30,10,50,7.70
2017,03,30,10,51,7.70
2017,03,30,10,52,7.80
2017,03,30,10,53,7.90
2017,03,30,10,54,7.90
2017,03,30,10,55,8.00
2017,03,30,10,56,8.10
2017,03,30,10,57,8.10
2017,03,30,10,58,8.20
2017,03,30,10,59,8.20
2017,03,30,11,00,8.30
2017,03,30,11,01,8.30
2017,03,30,11,02,8.30
2017,03,30,11,03,8.40
2017,03,30,11,04,8.40
2017,03,30,11,05,8.40
2017,03,30,11,06,8.50
2017,03,30,11,07,8.50
2017,03,30,11,08,8.60
2017,03,30,11,09,8.60
2017,03,30,11,10,8.70
2017,03,30,11,11,8.70
2017,03,30,11,12,8.70
2017,03,30,11,13,8.70
2017,03,30,11,14,8.80
2017,03,30,11,15,8.80
2017,03,30,11,16,8.80
2017,03,30,11,17,8.80
2017,03,30,11,18,8.80
2017,03,30,11,19,8.90
2017,03,30,11,20,8.90
2017,03,30,11,21,8.90
2017,03,30,11,22,8.90
2017,03,30,11,23,8.90
2017,03,30,11,24,8.90
2017,03,30,11,25,8.90
2017,03,30,11,26,9.00
2017,03,30,11,27,9.00
2017,03,30,11,28,9.00
2017,03,30,11,29,9.00
2017,03,30,11,30,9.00
2017,03,30,11,31,9.00
2017,03,30,11,32,9.10
2017,03,30,11,33,9.10
2017,03,30,11,34,9.10
2017,03,30,11,35,9.20
2017,03,30,11,36,9.20
2017,03,30,11,37,9.20
2017,03,30,11,38,9.20
2017,03,30,11,39,9.20
2017,03,30,11,40,9.30
2017,03,30,11,41,9.30
2017,03,30,11,42,9.30
2017,03,30,11,43,9.30
2017,03,30,11,44,9.30
2017,03,30,11,45,9.40
2017,03,30,11,46,9.40
2017,03,30,11,47,9.40
2017,03,30,11,48,9.40
2017,03,30,11,49,9.40
2017,03,30,11,50,9.50
2017,03,30,11,51,9.50
2017,03,30,11,52,9.50
2017,03,30,11,53,9.60
2017,03,30,11,54,9.60
2017,03,30,11,55,9.60
2017,03,30,11,56,9.60
2017,03,30,11,57,9.60
2017,03,30,11,58,9.70
2017,03,30,11,59,9.70
2017,03,30,12,00,9.70
2017,03,30,12,01,9.70
2017,03,30,12,02,9.80
2017,03,30,12,03,9.80
2017,03,30,12,04,9.80
2017,03,30,12,05,9.80
2017,03,30,12,06,9.80
2017,03,30,12,07,9.80
2017,03,30,12,08,9.90
2017,03,30,12,09,9.90
2017,03,30,12,10,9.90
2017,03,30,12,11,9.90
2017,03,30,12,12,9.90
2017,03,30,12,13,9.90
2017,03,30,12,14,9.90
2017,03,30,12,15,9.90
2017,03,30,12,16,9.90
2017,03,30,12,17,9.90
2017,03,30,12,18,9.90
2017,03,30,12,19,9.90
2017,03,30,12,20,9.90
2017,03,30,12,21,9.90
2017,03,30,12,22,9.90
2017,03,30,12,23,9.90
2017,03,30,12,24,9.90
2017,03,30,12,25,9.90
2017,03,30,12,26,9.80
2017,03,30,12,27,9.80
2017,03,30,12,28,9.80
2017,03,30,12,29,9.80
2017,03,30,12,30,9.80
2017,03,30,12,31,9.80
2017,03,30,12,32,9.80
2017,03,30,12,33,9.90
2017,03,30,12,34,9.90
2017,03,30,12,35,10.00
2017,03,30,12,36,10.00
2017,03,30,12,37,10.10
2017,03,30,12,38,10.20
2017,03,30,12,39,10.20
2017,03,30,12,40,10.20
2017,03,30,12,41,10.30
2017,03,30,12,42,10.30
2017,03,30,12,43,10.40
2017,03,30,12,44,10.40
2017,03,30,12,45,10.40
2017,03,30,12,46,10.50
2017,03,30,12,47,10.60
2017,03,30,12,48,10.60
2017,03,30,12,49,10.60
2017,03,30,12,50,10.70
2017,03,30,12,51,10.70
2017,03,30,12,52,10.70
2017,03,30,12,53,10.70
2017,03,30,12,54,10.80
2017,03,30,12,55,10.80
2017,03,30,12,56,10.80
2017,03,30,12,57,10.80
2017,03,30,12,58,10.80
2017,03,30,12,59,10.90
2017,03,30,13,00,10.90
2017,03,30,13,01,10.90
2017,03,30,13,02,10.90
2017,03,30,13,03,11.00
2017,03,30,13,04,11.00
2017,03,30,13,05,11.00
2017,03,30,13,06,11.00
2017,03,30,13,07,11.00
2017,03,30,13,08,11.00
2017,03,30,13,09,11.10
2017,03,30,13,10,11.10
2017,03,30,13,11,11.10
2017,03,30,13,12,11.10
2017,03,30,13,13,11.10
2017,03,30,13,14,11.10
2017,03,30,13,15,11.10
2017,03,30,13,16,11.20
2017,03,30,13,17,11.20
2017,03,30,13,18,11.20
2017,03,30,13,19,11.20
2017,03,30,13,20,11.20
2017,03,30,13,21,11.20
2017,03,30,13,22,11.20
2017,03,30,13,23,11.20
2017,03,30,13,24,11.20
2017,03,30,13,25,11.20
2017,03,30,13,26,11.20
2017,03,30,13,27,11.20
2017,03,30,13,28,11.30
2017,03,30,13,29,11.30
2017,03,30,13,30,11.30
2017,03,30,13,31,11.30
2017,03,30,13,32,11.30
2017,03,30,13,33,11.30
2017,03,30,13,34,11.30
2017,03,30,13,35,11.40
2017,03,30,13,36,11.40
2017,03,30,13,37,11.40
2017,03,30,13,38,11.40
2017,03,30,13,39,11.40
2017,03,30,13,40,11.40
2017,03,30,13,41,11.40
2017,03,30,13,42,11.40
2017,03,30,13,43,11.40
2017,03,30,13,44,11.30
2017,03,30,13,45,11.30
2017,03,30,13,46,11.30
2017,03,30,13,47,11.30
2017,03,30,13,48,11.30
2017,03,30,13,49,11.30
2017,03,30,13,50,11.30
2017,03,30,13,51,11.30
2017,03,30,13,52,11.30
2017,03,30,13,53,11.30
2017,03,30,13,54,11.30
2017,03,30,13,55,11.30
2017,03,30,13,56,11.30
2017,03,30,13,57,11.30
2017,03,30,13,58,11.30
2017,03,30,13,59,11.30
2017,03,30,14,00,11.30
2017,03,30,14,01,11.30
2017,03,30,14,02,11.30
2017,03,30,14,03,11.30
2017,03,30,14,04,11.40
2017,03,30,14,05,11.40
2017,03,30,14,06,11.40
2017,03,30,14,07,11.40
2017,03,30,14,08,11.40
2017,03,30,14,09,11.40
2017,03,30,14,10,11.50
2017,03,30,14,11,11.50
2017,03,30,14,12,11.50
2017,03,30,14,13,11.60
2017,03,30,14,14,11.50
2017,03,30,14,15,11.50
2017,03,30,14,16,11.50
2017,03,30,14,17,11.40
2017,03,30,14,18,11.40
2017,03,30,14,19,11.40
2017,03,30,14,20,11.40
2017,03,30,14,21,11.40
2017,03,30,14,22,11.40
2017,03,30,14,23,11.50
2017,03,30,14,24,11.50
2017,03,30,14,25,11.50
2017,03,30,14,26,11.60
2017,03,30,14,27,11.60
2017,03,30,14,28,11.60
2017,03,30,14,29,11.70
2017,03,30,14,30,11.70
2017,03,30,14,31,11.70
2017,03,30,14,32,11.80
2017,03,30,14,33,11.80
2017,03,30,14,34,11.90
2017,03,30,14,35,11.90
2017,03,30,14,36,12.00
2017,03,30,14,37,12.00
2017,03,30,14,38,12.10
2017,03,30,14,39,12.10
2017,03,30,14,40,12.10
2017,03,30,14,41,12.10
2017,03,30,14,42,12.10
2017,03,30,14,43,12.00
2017,03,30,14,44,12.00
2017,03,30,14,45,12.00
2017,03,30,14,46,11.90
2017,03,30,14,47,11.90
2017,03,30,14,48,11.90
2017,03,30,14,49,11.80
2017,03,30,14,50,11.80
2017,03,30,14,51,11.80
2017,03,30,14,52,11.80
2017,03,30,14,53,11.70
2017,03,30,14,54,11.70
2017,03,30,14,55,11.60
2017,03,30,14,56,11.60
2017,03,30,14,57,11.60
2017,03,30,14,58,11.60
2017,03,30,14,59,11.50
2017,03,30,15,00,11.50
2017,03,30,15,01,11.50
2017,03,30,15,02,11.40
2017,03,30,15,03,11.40
2017,03,30,15,04,11.40
2017,03,30,15,05,11.40
2017,03,30,15,06,11.40
2017,03,30,15,07,11.40
2017,03,30,15,08,11.30
2017,03,30,15,09,11.30
2017,03,30,15,10,11.30
2017,03,30,15,11,11.30
2017,03,30,15,12,11.30
2017,03,30,15,13,11.30
2017,03,30,15,14,11.30
2017,03,30,15,15,11.30
2017,03,30,15,16,11.30
2017,03,30,15,17,11.20
2017,03,30,15,18,11.20
2017,03,30,15,19,11.20
2017,03,30,15,20,11.20
2017,03,30,15,21,11.20
2017,03,30,15,22,11.20
2017,03,30,15,23,11.20
2017,03,30,15,24,11.20
2017,03,30,15,25,11.20
2017,03,30,15,26,11.20
2017,03,30,15,27,11.20
2017,03,30,15,28,11.10
2017,03,30,15,29,11.10
2017,03,30,15,30,11.10
2017,03,30,15,31,11.10
2017,03,30,15,32,11.10
2017,03,30,15,33,11.10
2017,03,30,15,34,11.00
2017,03,30,15,35,11.00
2017,03,30,15,36,11.00
2017,03,30,15,37,11.00
2017,03,30,15,38,10.90
2017,03,30,15,39,10.90
2017,03,30,15,40,10.90
2017,03,30,15,41,10.90
2017,03,30,15,42,10.80
2017,03,30,15,43,10.80
2017,03,30,15,44,10.80
2017,03,30,15,45,10.80
2017,03,30,15,46,10.80
2017,03,30,15,47,10.80
2017,03,30,15,48,10.80
2017,03,30,15,49,10.80
2017,03,30,15,50,10.70
2017,03,30,15,51,10.70
2017,03,30,15,52,10.70
2017,03,30,15,53,10.70
2017,03,30,15,54,10.70
2017,03,30,15,55,10.70
2017,03,30,15,56,10.70
2017,03,30,15,57,10.70
2017,03,30,15,58,10.70
2017,03,30,15,59,10.70
2017,03,30,16,00,10.70
2017,03,30,16,01,10.70
2017,03,30,16,02,10.70
2017,03,30,16,03,10.70
2017,03,30,16,04,10.70
2017,03,30,16,05,10.70
2017,03,30,16,06,10.70
2017,03,30,16,07,10.70
2017,03,30,16,08,10.70
2017,03,30,16,09,10.70
2017,03,30,16,10,10.80
2017,03,30,16,11,10.80
2017,03,30,16,12,10.90
2017,03,30,16,13,11.00
2017,03,30,16,14,11.20
2017,03,30,16,15,11.30
2017,03,30,16,16,11.50
2017,03,30,16,17,11.60
2017,03,30,16,18,11.80
2017,03,30,16,19,11.90
2017,03,30,16,20,12.10
2017,03,30,16,21,12.20
2017,03,30,16,22,12.20
2017,03,30,16,23,12.20
2017,03,30,16,24,12.30
2017,03,30,16,25,12.40
2017,03,30,16,26,12.40
2017,03,30,16,27,12.40
2017,03,30,16,28,12.50
2017,03,30,16,29,12.50
2017,03,30,16,30,12.50
2017,03,30,16,31,12.50
2017,03,30,16,32,12.50
2017,03,30,16,33,12.60
2017,03,30,16,34,12.60
2017,03,30,16,35,12.70
2017,03,30,16,36,12.80
2017,03,30,16,37,12.80
2017,03,30,16,38,12.90
2017,03,30,16,39,12.90
2017,03,30,16,40,13.00
2017,03,30,16,41,13.00
2017,03,30,16,42,12.90
2017,03,30,16,43,12.90
2017,03,30,16,44,13.00
2017,03,30,16,45,13.00
2017,03,30,16,46,13.00
2017,03,30,16,47,13.00
2017,03,30,16,48,13.10
2017,03,30,16,49,13.10
2017,03,30,16,50,13.20
2017,03,30,16,51,13.20
2017,03,30,16,52,13.20
2017,03,30,16,53,13.30
2017,03,30,16,54,13.30
2017,03,30,16,55,13.30
2017,03,30,16,56,13.30
2017,03,30,16,57,13.30
2017,03,30,16,58,13.30
2017,03,30,16,59,13.20
2017,03,30,17,00,13.20
2017,03,30,17,01,13.10
2017,03,30,17,02,13.00
2017,03,30,17,03,13.00
2017,03,30,17,04,12.90
2017,03,30,17,05,12.80
2017,03,30,17,06,12.70
2017,03,30,17,07,12.60
2017,03,30,17,08,12.50
2017,03,30,17,09,12.40
2017,03,30,17,10,12.30
2017,03,30,17,11,12.30
2017,03,30,17,12,12.20
2017,03,30,17,13,12.20
2017,03,30,17,14,12.10
2017,03,30,17,15,12.10
2017,03,30,17,16,12.00
2017,03,30,17,17,12.00
2017,03,30,17,18,11.90
2017,03,30,17,19,11.90
2017,03,30,17,20,11.80
2017,03,30,17,21,11.80
2017,03,30,17,22,11.70
2017,03,30,17,23,11.70
2017,03,30,17,24,11.60
2017,03,30,17,25,11.60
2017,03,30,17,26,11.50
2017,03,30,17,27,11.50
2017,03,30,17,28,11.40
2017,03,30,17,29,11.40
2017,03,30,17,30,11.30
2017,03,30,17,31,11.30
2017,03,30,17,32,11.30
2017,03,30,17,33,11.20
2017,03,30,17,34,11.20
2017,03,30,17,35,11.10
2017,03,30,17,36,11.10
2017,03,30,17,37,11.00
2017,03,30,17,38,11.00
2017,03,30,17,39,10.90
2017,03,30,17,40,10.90
2017,03,30,17,41,10.90
2017,03,30,17,42,10.80
2017,03,30,17,43,10.80
2017,03,30,17,44,10.80
2017,03,30,17,45,10.80
2017,03,30,17,46,10.80
2017,03,30,17,47,10.70
2017,03,30,17,48,10.70
2017,03,30,17,49,10.70
2017,03,30,17,50,10.70
2017,03,30,17,51,10.70
2017,03,30,17,52,10.70